This demonstration page uses our WeatherBlox Daily Observations layout. Learn more.

41.55636, -103.73856

Hourly Observations for May 26, 2017

Temp ( °F °C ) Dew Point ( °F °C ) Humidity (%) Winds ( mph kmh ) Pressure ( in mb ) Visibility ( mi km ) Precip ( " mm )
12:53 am 00:53 Clear 50 10 38 3.3 63 63 WNW 8 13 29.78 1009 10 16.0934 0 0
1:53 am 01:53 Clear 49 9.4 36 2.2 61 61 NW 9 15 29.81 1009 10 16.0934 0 0
2:53 am 02:53 Clear 47 8.3 35 1.7 63 63 NW 10 17 29.86 1011 10 16.0934 0 0
3:53 am 03:53 Clear 42 5.6 35 1.7 76 76 WNW 6 9 29.86 1011 10 16.0934 0 0
4:53 am 04:53 Clear 40 4.4 35 1.7 83 83 WNW 7 11 29.88 1012 10 16.0934 0 0
5:53 am 05:53 Sunny 40 4.4 36 2.2 86 86 WNW 7 11 29.89 1012 10 16.0934 0 0
6:53 am 06:53 Sunny 45 7.2 38 3.3 77 77 WNW 6 9 29.91 1013 10 16.0934 0 0
7:53 am 07:53 Sunny 51 10.6 40 4.4 66 66 WNW 7 11 29.9 1013 10 16.0934 0 0
8:53 am 08:53 Sunny 55 12.8 38 3.3 53 53 WNW 7 11 29.91 1013 10 16.0934 0 0
9:53 am 09:53 Cloudy 57 13.9 38 3.3 49 49 undefined N/A 29.89 1012 10 16.0934 0 0
10:53 am 10:53 Sunny 60 15.6 39 3.9 46 46 SSW 5 7 29.88 1012 10 16.0934 0 0
11:53 am 11:53 Sunny 62 16.7 38 3.3 41 41 VRB 5 7 29.87 1012 10 16.0934 0 0
12:53 pm 12:53 Mostly Cloudy 62 16.7 37 2.8 40 40 SE 7 11 29.85 1011 10 16.0934 0 0
1:53 pm 13:53 Sunny 64 17.8 38 3.3 38 38 VRB 5 7 29.82 1010 10 16.0934 0 0
2:53 pm 14:53 Mostly Sunny 64 17.8 40 4.4 41 41 E 8 13 29.82 1010 10 16.0934 0 0
3:53 pm 15:53 Cloudy with Light Rain 62 16.7 42 5.6 48 48 ENE 8 13 29.85 1011 10 16.0934 0 0.0254
4:53 pm 16:53 Cloudy with Light Rain 61 16.1 49 9.4 65 65 ENE 16 26 29.84 1010 10 16.0934 0.04 1.016
5:53 pm 17:53 Mostly Sunny 59 15 48 8.9 67 67 ENE 14 22 29.82 1010 10 16.0934 0 0.0254
6:53 pm 18:53 Cloudy with Nearby Thunderstorms 58 14.4 48 8.9 70 70 N 15 24 29.85 1011 10 16.0934 0 0
7:07 pm 19:07 Cloudy with Heavy Rain 54 12.2 49 9.4 83 83 N 16 26 29.85 1011 6 9.65604 0.03 0.762
7:17 pm 19:17 Cloudy with Nearby Thunderstorms 54 12.2 50 10 87 87 N 15 24 29.85 1011 5 8.0467 0.07 1.778
7:37 pm 19:37 Cloudy with Heavy Thunderstorms 53 11.7 50 10 89 89 NNE 15 24 29.85 1011 3 4.82802 0.16 4.064
7:53 pm 19:53 Cloudy with Rain 53 11.7 50 10 89 89 N 14 22 29.93 1013 4 6.43736 0.24 6.096
8:53 pm 20:53 Cloudy with Light Rain 51 10.6 48 8.9 89 89 NE 10 17 29.94 1014 9 14.48406 0.14 3.556
9:53 pm 21:53 Cloudy 50 10 48 8.9 93 93 N 12 19 29.94 1014 10 16.0934 0.12 3.048
10:53 pm 22:53 Cloudy 50 10 47 8.3 89 89 NNW 10 17 29.96 1015 10 16.0934 0 0
11:53 pm 23:53 Cloudy 50 10 46 7.8 86 86 Calm 29.92 1013 10 16.0934 0 0

Powered by AerisWeather